AirNav   ProFlight Series 2 Aviation Headset
 
 1085 users online  

71CL Gunnersfield Ranch Airport
Delevan, California, USA

GOING TO DELEVAN?


FAA INFORMATION EFFECTIVE 08 OCTOBER 2020

Location

FAA Identifier: 71CL
Lat/Long: 39-21-09.5910N 122-05-37.9160W
39-21.159850N 122-05.631933W
39.3526642,-122.0938656
(estimated)
Elevation: 62 ft. / 19 m (estimated)
Variation: 17E (1985)
From city: 4 miles E of DELEVAN, CA
Time zone: UTC -7 (UTC -8 during Standard Time)
Zip code: 95932

Airport Operations

Airport use: Private use. Permission required prior to landing
Activation date: 05/1965
Control tower: no
ARTCC: OAKLAND CENTER
FSS: RANCHO MURIETA FLIGHT SERVICE STATION
Attendance: UNATNDD
Wind indicator: yes
Segmented circle: no
Lights: FOR RWY LGTS PHONE 916-438-2316.
Beacon: white-green (lighted land airport)
FOR RTG BCN PHONE 916-438-2316.

Airport Communications

UNICOM: 122.8
  • UNICOM OPERATED AS REQUIRED.

Nearby radio navigation aids

VOR radial/distance  VOR name  Freq  Var
ILAr332/17.2WILLIAMS VORTAC114.4018E
MYVr286/28.6MARYSVILLE VOR/DME110.8016E

Airport Services

Airframe service: NONE
Powerplant service: NONE

Runway Information

Runway 16/34

Dimensions: 2570 x 40 ft. / 783 x 12 m
Surface: asphalt
Runway edge lights: low intensity
RUNWAY 16  RUNWAY 34
Traffic pattern: leftleft
Obstructions: none4 ft. levee, 20 ft. from runway

Airport Ownership and Management from official FAA records

Ownership: Privately-owned
Owner: JON B. CHANEY
PO BOX 626
MAXWELL, CA 95955
Phone 916-438-2504
Manager: DOUGLAS MC GEOGHEGAN
PO BOX 626
MAXWELL, CA 95955
Phone 916-438-2504

Airport Operational Statistics

Aircraft based on the field: 1
Single engine airplanes: 1
    

Additional Remarks

LGTD/MKD HANGER NEAR RWY.
FOR CD CTC OAKLAND ARTCC AT 510-745-3380.

Instrument Procedures

There are no published instrument procedures at 71CL.

Some nearby airports with instrument procedures:

KWLW - Willows-Glenn County Airport (11 nm NW)
O08 - Colusa County Airport (11 nm SE)
O37 - Haigh Field Airport (22 nm N)
KOVE - Oroville Municipal Airport (23 nm E)
KCIC - Chico Municipal Airport (29 nm N)
 
Loc | Ops | Rwys | IFR | FBO | Links
Com | Nav | Svcs | Stats | Notes

Sonoma Jet Center
 
Area around 71CL (Gunnersfield Ranch Airport)
 
Road maps at: MapQuest Bing Google
 
Aerial photo
No photo
 
Sectional chart

 
Airport distance calculator
Flying to Gunnersfield Ranch Airport? Find the distance to fly.

From to 71CL

Sunrise and sunset
Times for 25-Oct-2020
 Local
(UTC-7)
 Zulu
(UTC)
Morning civil twilight07:0314:03
Sunrise07:3114:31
Sunset18:1401:14
Evening civil twilight18:4101:41

Current date and time
Zulu (UTC)  26-Oct-2020 01:32:34
Local (UTC-7)  25-Oct-2020 18:32:34
 
METAR
KOVE 
24nm E 
260053Z AUTO 02019G28KT 10SM CLR 20/M19 A2999 RMK AO2 PK WND 02029/0037 SLP157 T02001189 $
KCIC 
29nm NE 
260053Z 32006KT 40SM SKC 19/M18 A3002
KMYV 
29nm SE 
260053Z AUTO 33016G24KT 10SM CLR 19/M10 A2992 RMK AO2 PK WND 33032/0007 SLP136 T01891100
KBAB 
33nm SE 
260058Z 01017KT 10SM CLR 21/M20 A2989 RMK AO2A PK WND 36031/28 SLP124 T02091202 $
KLHM 
44nm SE 
260115Z AUTO 32013KT 10SM CLR 18/M10 A2987 RMK AO1
KSMF 
45nm SE 
260053Z 32016KT 6SM HZ BLDU CLR 18/M07 A2989 RMK AO2 PK WND 33033/0014 SLP120 T01831072
TAF
KBAB 
33nm SE 
252354Z 2523/2701 32020G30KT 9999 SKC 520009 520901 QNH2985INS TEMPO 2523/2601 35025G35KT BECMG 2600/2601 01015G25KT 9999 SKC 520009 520909 QNH2986INS BECMG 2604/2605 36012KT 9999 SKC 530302 520509 QNH3000INS BECMG 2617/2618 35012G18KT 9999 SKC QNH3005INS TX22/2523Z TN08/2612Z
NOTAMs
Click for the latest NOTAMs
NOTAMs are issued by the DoD/FAA and will open in a separate window not controlled by AirNav.

 

 
 

Would you like to see your business listed on this page?

 If your business provides an interesting product or service to pilots, flight crews, aircraft, or users of the Gunnersfield Ranch Airport, you should consider listing it here.  To start the listing process, click on the button below
 
Add a business
 

Other Pages about Gunnersfield Ranch Airport

Update a link
 
Copyright © AirNav, LLC. All rights reserved. Privacy Policy  Contact